Regional Weather Roundup
Issued by NWS

Home | Current Version | Previous Version | Text Only | Print | Product List | Glossary Off
Versions: 1 2 3 4 5 6 7 8 9 10 11 12 13 14 15 16 17 18 19 20 21 22 23 24 25 26 27

000
ASUS45 KSLC 201010
RWRUT

UTAH REGIONAL WEATHER ROUNDUP
NATIONAL WEATHER SERVICE SALT LAKE CITY UT
400 AM MDT WED SEP 20 2017

UTZ001>011-023>025-201100-

NORTHERN UTAH

CITY           SKY/WX    TMP DP  RH WIND       PRES   REMARKS
BRIGHAM CITY   CLOUDY    40  36  87 NE5       29.94S
HILL AFB       CLEAR     44  33  65 E13       29.94F
LOGAN          CLOUDY    39  36  89 CALM      29.94F
OGDEN          CLEAR     44  35  70 S8        29.93F
SALT LAKE CITY CLEAR     48  36  63 S7        29.93F
TOOELE VALLEY  CLEAR     41  34  75 CALM      29.94S
WENDOVER       CLEAR     46  29  51 W5        29.93
HEBER CITY     CLEAR     34  32  93 CALM      29.99R
WEST JORDAN    CLEAR     43  37  79 S5        29.96S

$$

UTZ011>015-024>027-201100-

CENTRAL/NORTHEAST UTAH

CITY           SKY/WX    TMP DP  RH WIND       PRES   REMARKS
PROVO AIRPORT  CLEAR     43  37  79 E3        29.96S
MOAB/CANYONLAN CLEAR     58  35  42 CALM      29.87R
DELTA          CLEAR     43  34  70 NE5       29.95S
PRICE          PTCLDY    52  29  41 N10       29.94F
ROOSEVELT      CLOUDY    50  37  62 CALM      30.00R
VERNAL         CLOUDY    50  36  58 N3        29.98R

$$

UTZ013>016-019>022-027-201100-

SOUTHERN UTAH

CITY           SKY/WX    TMP DP  RH WIND       PRES   REMARKS
BRYCE CANYON   CLEAR     51  32  48 SW10      30.06S
CEDAR CITY     CLEAR     50  38  63 CALM      29.95S
MILFORD        CLEAR     46  33  60 VRB3      29.94S
ST GEORGE      SUNNY     68  37  32 CALM      29.82F
HANKSVILLE     CLEAR     57  36  44 N8        29.89R
BLANDING         N/A     56  32  39 CALM      30.06R

$$

REGIONAL REPORTS     COLORADO/ARIZONA

CITY           SKY/WX    TMP DP  RH WIND       PRES   REMARKS
CRAIG, CO      CLOUDY    40  35  83 NE5       30.02F
GRAND JUNCTION CLEAR     55  36  48 CALM      29.91R
RIFLE, CO      CLOUDY    49  37  63 SE6       29.97R
MONTROSE, CO   CLEAR     50  33  52 SE6       29.97R
CORTEZ, CO     CLEAR     53  26  35 CALM      30.01S
PAGE, AZ       CLEAR     70  38  31 S6        29.89S
GRAND CANYON   CLEAR     39  29  67 NE3       30.09S
KINGMAN, AZ    CLEAR     63  39  41 SE7       29.88S
FLAGSTAFF, AZ  CLEAR     44  29  55 CALM      30.12S

$$

REGIONAL REPORTS    NEVADA/IDAHO/WYOMING

CITY           SKY/WX    TMP DP  RH WIND       PRES   REMARKS
LAS VEGAS, NV  CLEAR     74  41  30 S8        29.75F
ELY, NY        CLEAR     34  24  67 S10       30.00F WCI  26
ELKO, NV       CLEAR     36  20  52 CALM      29.93F
POCATELLO, ID  CLOUDY    47  30  51 S12       29.91S
BURLEY, ID     CLOUDY    41  34  76 S5        29.87F
FORT BRIDGER,    N/A     36  29  74 SW7       30.02F WCI  31
EVANSTON, WY   CLEAR     33  29  85 SW10      29.99F WCI  25
ROCK SPRINGS,  CLOUDY    36  30  79 CALM      30.00S
KEMMERER, WY     N/A     32  28  86 W3        29.99F

$$




USA.gov is the U.S. government's official web portal to all federal, state and local government web resources and services.